Location: Jalan Sepang
(2.8072°N, 101.8021°E)
Time: 05:02:32
(UTC+00:00)

Thor Agena Rocket - Pass Details

Date: 15 May 2026
Orbit: 755 x 802 km, 99.1° (Epoch: 7 June)

Event Time Altitude Azimuth Distance (km) Brightness Sun altitude
Rises 11:58:51 0° 176° (S) 3,256 6.5 -10.8°
Reaches altitude 10° 12:01:13 10° 181° (S) 2,319 5.8 -11.3°
Maximum altitude 12:06:11 53° 257° (WSW) 935 4.3 -12.5°
Drops below altitude 10° 12:11:05 10° 334° (NNW) 2,285 6.7 -13.7°
Sets 12:13:25 0° 338° (NNW) 3,204 7.4 -14.2°
